TIANLIAN 1-04

Last updated on Jan. 18, 2020, 4:38 a.m. UTC

1 41869U 16072A   20017.81880411 -.00000110  00000-0  00000+0 0  9997
2 41869   0.5776 282.4389 0011280 163.2365  42.8378  1.00270665 11820
UTC
Height (km)
Latitude
Longitude
Inclination
Orbital Period
UTC large
Height (km)
Speed (km/s)
/
Latitude / Longitude
Inclination (degrees)
Orbital Period (minutes)
Azimuth
Elevation
Range (km)
Doppler Factor
iOS Compass Heading
iOS Angle

Next 30 passes for location: Hong Kong

Rise time Rise Azimuth (degrees) Set time Set Azimuth (degrees) Duration Max altitude (degrees)

No matching passes for this satellites